Regional Weather Roundup
Issued by NWS

Home | Current Version | Previous Version | Graphics & Text | Print | Product List | Glossary On
Versions: 1 2 3 4 5 6 7 8 9 10 11 12 13 14 15 16 17 18 19 20 21 22 23 24 25 26 27 28
000
ASUS45 KSLC 231110
RWRUT

UTAH REGIONAL WEATHER ROUNDUP
NATIONAL WEATHER SERVICE SALT LAKE CITY UT
500 AM MDT WED APR 23 2014

UTZ001>011-023>025-231200-

NORTHERN UTAH

CITY           SKY/WX    TMP DP  RH WIND       PRES   REMARKS
HILL AFB       MOCLDY    35  33  91 NE1       29.92R
LOGAN          MOCLDY    37  33  85 SE7       29.90R WCI  32
OGDEN          MOCLDY    37  33  85 SE5       29.91S WCI  33
PROVO AIRPORT  CLOUDY    39  30  70 N13       29.94R WCI  32
SALT LAKE CITY MOCLDY    42  36  79 W9        29.93R
VERNAL         MOCLDY    42  23  46 CALM      29.78R
WENDOVER       MOCLDY    39  18  41 W15       29.95R WCI  31
HEBER CITY     CLOUDY    34  32  93 NE3       29.89R
WEST JORDAN    CLEAR     37  30  75 N6        29.94R WCI  33

$$

UTZ012>022-026-027-231200-

SOUTHERN UTAH

CITY           SKY/WX    TMP DP  RH WIND       PRES   REMARKS
BRYCE CANYON   PTCLDY    31  22  69 W15       29.89S WCI  20
CEDAR CITY     MOCLDY    33  23  66 CALM      29.90R
MILFORD        MOCLDY    37  27  67 N10       29.91S WCI  30
MOAB/CYNLANDS  CLEAR     50  23  34 W14       29.76R
PRICE          CLEAR     36  20  52 N7        29.83S WCI  30
ST GEORGE      PTSUNNY   54  16  22 SE5       29.84R

$$

REGIONAL REPORTS     COLORADO/ARIZONA

CITY           SKY/WX    TMP DP  RH WIND       PRES   REMARKS
CRAIG, CO      LGT RAIN  37  34  89 VRB3      29.83R
GRAND JUNCTION MOCLDY    56  24  29 W13       29.72R
RIFLE          LGT RAIN  50  33  52 NW21G30   29.74R
MONTROSE       MOCLDY    59  28  30 SW13G24   29.78R
CORTEZ         CLOUDY    55  27  34 S10       29.83R
PAGE, AZ       CLEAR     56  10  16 W3        29.80R
GRAND CANYON   PTCLDY    34   9  35 SW7       29.87F WCI  28
KINGMAN        CLOUDY    47   3  16 SE7       29.82S
FLAGSTAFF      CLEAR     45  18  34 W9        29.88F

$$

REGIONAL REPORTS    NEVADA/IDAHO/WYOMING

CITY           SKY/WX    TMP DP  RH WIND       PRES   REMARKS
LAS VEGAS, NV  MOCLDY    63   8  11 N17G28    29.79R
ELY            CLOUDY    24  19  81 S7        29.97R WCI  16
ELKO           MOCLDY    29  25  85 CALM      29.97R
POCATELLO, ID  CLEAR     35  27  72 SW15G28   29.87R WCI  25
BURLEY         CLEAR     35  27  72 W16G28    29.89R WCI  25
EVANSTON, WY   LGT SNOW  28  26  92 W15       29.85R FOG     WCI  16
ROCK SPRINGS   CLOUDY    33  26  75 W17       29.79S WCI  22

$$



USA.gov is the U.S. government's official web portal to all federal, state and local government web resources and services.